Regional Weather Roundup
Issued by NWS

Home | Current Version | Previous Version | Text Only | Print | Product List | Glossary On
Versions: 1 2 3 4 5 6 7 8 9 10 11 12 13 14 15 16 17 18 19 20 21 22 23 24 25 26 27 28 29 30 31 32 33 34 35 36 37 38 39 40 41 42 43 44 45 46 47 48 49 50
000
ASUS44 KBMX 311510
RWRAL

ALABAMA REGIONAL WEATHER ROUNDUP
NATIONAL WEATHER SERVICE BIRMINGHAM AL
1000 AM CDT TUE MAR 31 2015

NOTE: "FAIR" INDICATES FEW OR NO CLOUDS BELOW 12,000 FEET
WITH NO SIGNIFICANT WEATHER AND/OR OBSTRUCTIONS TO VISIBILITY.

THE REMARK "TC" DENOTES TEMPERATURE IN DEGREES CELSIUS.

ALZ001>011-014-016>018-020-311600-
NORTH ALABAMA

CITY           SKY/WX    TMP DP  RH WIND       PRES   REMARKS
MUSCLE SHOALS  PTSUNNY   63  49  60 CALM      30.05F
HUNTSVILLE     PTSUNNY   63  48  58 S3        30.06S
DECATUR        PTSUNNY   60  52  74 SE3       30.06S
HALEYVILLE       N/A     64  53  67 CALM      30.08F
GADSDEN        CLOUDY    61  46  59 CALM      30.07F
$$

ALZ012-013-022-023-030>036-040>044-311600-
WEST CENTRAL ALABAMA

CITY           SKY/WX    TMP DP  RH WIND       PRES   REMARKS
TUSCALOOSA     MOSUNNY   68  59  73 S3        30.08S
$$

ALZ015-024>027-033>036-040>044-311600-
CENTRAL ALABAMA

CITY           SKY/WX    TMP DP  RH WIND       PRES   REMARKS
BIRMINGHAM     PTSUNNY   67  56  67 SW6       30.10S
MONTGOMERY     MOSUNNY   68  60  75 W5        30.11R
SHELBY CO ARPT MOSUNNY   70  59  68 S5        30.08F
MAXWELL AFB    PTSUNNY   67  62  83 SW7       30.10S
GREENVILLE     FAIR      73  60  63 W10       30.11R
$$

ALZ019-021-028-029-037-038-045>048-311600-
EAST CENTRAL ALABAMA

CITY           SKY/WX    TMP DP  RH WIND       PRES   REMARKS
ANNISTON       CLOUDY    61  46  57 SW3       30.10S
ALEXANDER CITY SUNNY     69  55  61 W3        30.10F
AUBURN         MOSUNNY   66  55  68 SW7       30.13S
$$

ALZ051>064-311600-
SOUTHWEST ALABAMA

CITY           SKY/WX    TMP DP  RH WIND       PRES   REMARKS
MOBILE         PTSUNNY   73  62  68 W7        30.16R
BROOKLEY FIELD MOSUNNY   74  62  66 VRB6      30.16R
EVERGREEN      MOSUNNY   73  60  63 W10       30.14R
$$

ALZ049-050-065>069-311600-
SOUTHEAST ALABAMA

CITY           SKY/WX    TMP DP  RH WIND       PRES   REMARKS
DOTHAN         MOSUNNY   69  62  78 W8        30.15S
OZARK          SUNNY     68  65  91 W8        30.12S
TROY           SUNNY    N/A N/A N/A SW7       30.12S
EUFAULA        FAIR      74  63  68 VRB5      30.09F
$$



USA.gov is the U.S. government's official web portal to all federal, state and local government web resources and services.